{"data":{"norad_id":43181,"epoch":"2026-05-25T04:19:31.116864Z","epoch_age_seconds":59636,"freshness":"FRESH","line1":"1 43181U 18014B   26145.18022126  .00002229  00000+0  98213-4 0  9992","line2":"2 43181  97.3607  51.3227 0002032  82.4073 277.7394 15.22844853461239","mean_motion":15.22844853,"eccentricity":0.0002032,"inclination_deg":97.3607,"raan_deg":51.3227,"arg_perigee_deg":82.4073,"mean_anomaly_deg":277.7394,"bstar":9.8213e-5,"rev_number":46123,"period_min":94.559862560077,"perigee_km":495.86747490592,"apogee_km":498.66163809849,"semimajor_km":6875.4015565022,"source":"CELESTRAK","updated_at":"2026-05-25T13:37:55.789331Z"}}